Cosmos 1378 - Orbit

View from above orbital plane
View from above orbital plane
View from above satellite
View from above satellite

Ground track
Ground track

The orbit data is extracted from the following two-line orbital elements,

1 13271U 82059A   13168.24979251  .00002203  00000-0  12830-3 0  2308
2 13271 082.4712 223.7966 0007421 336.5898 087.2329 15.11529877688392
Epoch (UTC): 17 June 2013 05:59:42
Eccentricity: 0.0007421
inclination: 82.4712°
perigee height: 526 km
apogee height: 536 km
right ascension of ascending node: 223.7966°
argument of perigee: 336.5898°
revolutions per day: 15.11529877
mean anomaly at epoch: 87.2329°
orbit number at epoch: 68839

The dashed part of the orbit path shows where the satellite is in the earth's shadow,  

Developed and maintained by Chris Peat, Heavens-Above GmbH. Please read the updated FAQ before sending e-mail. Imprint. DLR